AFR603 SBBE-SOCA

Flight info

Callsign AFR603
Flight time 1h 11m
Altitude 36000
Route ILMAN UZ81 BEL UA555 ALDIX ALDIX1S
Aircraft A320/M-SDE2E3FGIJ1RWY/HB1

Departure

Time 2026-05-09 11:46
Airport Val de Cans/Júlio Cezar Ribeiro International Airport (SBBE)

Arrival

Time 2026-05-09 12:57
Airport Cayenne – Félix Eboué Airport (SOCA)
Time Latitude Longitude Altitude Speed Heading
2026-05-09 11:09 -1.38855 -48.47889 65 ft 0 kts 227°
2026-05-09 11:37 -1.38842 -48.47875 58 ft 4 kts 228°
2026-05-09 11:37 -1.38824 -48.47855 58 ft 4 kts 231°
2026-05-09 11:37 -1.38808 -48.47833 57 ft 4 kts 240°
2026-05-09 11:37 -1.38800 -48.47811 57 ft 4 kts 285°
2026-05-09 11:38 -1.38801 -48.47803 61 ft 0 kts
2026-05-09 11:41 -1.38754 -48.47801 65 ft 8 kts
2026-05-09 11:42 -1.38702 -48.47798 65 ft 7 kts
2026-05-09 11:42 -1.38669 -48.47812 58 ft 5 kts 302°
2026-05-09 11:42 -1.38667 -48.47865 65 ft 9 kts 268°
2026-05-09 11:42 -1.38668 -48.47930 65 ft 12 kts 269°
2026-05-09 11:43 -1.38669 -48.48038 65 ft 19 kts 270°
2026-05-09 11:43 -1.38673 -48.48175 60 ft 18 kts 268°
2026-05-09 11:43 -1.38712 -48.48260 64 ft 13 kts 223°
2026-05-09 11:43 -1.38773 -48.48322 59 ft 11 kts 226°
2026-05-09 11:44 -1.38813 -48.48380 63 ft 10 kts 254°
2026-05-09 11:44 -1.38803 -48.48476 58 ft 15 kts 312°
2026-05-09 11:44 -1.38740 -48.48442 58 ft 11 kts 51°
2026-05-09 11:44 -1.38722 -48.48421 62 ft 0 kts 47°
2026-05-09 11:45 -1.38691 -48.48389 62 ft 33 kts 45°
2026-05-09 11:45 -1.38349 -48.48044 61 ft 103 kts 45°
2026-05-09 11:45 -1.37706 -48.47395 60 ft 158 kts 46°
2026-05-09 11:45 -1.36944 -48.46571 592 ft 159 kts 48°
2026-05-09 11:46 -1.36199 -48.45773 1229 ft 161 kts 46°
2026-05-09 11:46 -1.35239 -48.45203 1842 ft 167 kts
2026-05-09 11:46 -1.34150 -48.45529 2492 ft 169 kts 322°
2026-05-09 11:46 -1.33514 -48.46506 3018 ft 173 kts 281°
2026-05-09 11:47 -1.33450 -48.47717 3399 ft 182 kts 266°
2026-05-09 11:47 -1.33567 -48.49047 3638 ft 203 kts 260°
2026-05-09 11:47 -1.33840 -48.50514 3842 ft 226 kts 255°
2026-05-09 11:47 -1.34250 -48.52111 4070 ft 249 kts 253°
2026-05-09 11:48 -1.34721 -48.53866 4384 ft 273 kts 253°
2026-05-09 11:48 -1.35215 -48.55757 4940 ft 287 kts 253°
2026-05-09 11:48 -1.35849 -48.57655 5694 ft 290 kts 241°
2026-05-09 11:48 -1.36923 -48.59350 6489 ft 289 kts 226°
2026-05-09 11:49 -1.38312 -48.60800 7249 ft 290 kts 222°
2026-05-09 11:49 -1.39741 -48.62239 8010 ft 294 kts 223°
2026-05-09 11:49 -1.41186 -48.63699 8764 ft 297 kts 223°
2026-05-09 11:49 -1.42611 -48.65218 9494 ft 302 kts 231°
2026-05-09 11:50 -1.43590 -48.67092 10160 ft 309 kts 253°
2026-05-09 11:50 -1.43798 -48.69270 10497 ft 328 kts 278°
2026-05-09 11:50 -1.42991 -48.71451 10682 ft 346 kts 306°
2026-05-09 11:50 -1.41224 -48.73088 11112 ft 351 kts 333°
2026-05-09 11:51 -1.38920 -48.73860 11690 ft 351 kts 352°
2026-05-09 11:51 -1.36505 -48.74292 12337 ft 354 kts 353°
2026-05-09 11:51 -1.34064 -48.74700 12972 ft 357 kts 353°
2026-05-09 11:51 -1.31632 -48.75094 13616 ft 360 kts 353°
2026-05-09 11:52 -1.29146 -48.75491 14194 ft 363 kts 353°
2026-05-09 11:52 -1.26644 -48.75896 14760 ft 366 kts 353°
2026-05-09 11:52 -1.24119 -48.76311 15308 ft 369 kts 353°
2026-05-09 11:52 -1.21582 -48.76733 15859 ft 371 kts 353°
2026-05-09 11:53 -1.19024 -48.77161 16407 ft 374 kts 353°
2026-05-09 11:53 -1.16451 -48.77594 16946 ft 377 kts 353°
2026-05-09 11:53 -1.13859 -48.78028 17486 ft 379 kts 353°
2026-05-09 11:53 -1.11251 -48.78463 18030 ft 381 kts 353°
2026-05-09 11:54 -1.08624 -48.78899 18521 ft 384 kts 353°
2026-05-09 11:54 -1.05979 -48.79340 18974 ft 387 kts 353°
2026-05-09 11:54 -1.03316 -48.79784 19423 ft 389 kts 353°
2026-05-09 11:54 -1.00637 -48.80231 19871 ft 392 kts 353°
2026-05-09 11:55 -0.97938 -48.80681 20318 ft 395 kts 353°
2026-05-09 11:56 -0.84165 -48.83010 22486 ft 410 kts 349°
2026-05-09 11:56 -0.81430 -48.83867 22886 ft 415 kts 339°
2026-05-09 11:56 -0.78858 -48.85210 23279 ft 420 kts 329°
2026-05-09 11:57 -0.76376 -48.86774 23638 ft 423 kts 329°
2026-05-09 11:57 -0.73874 -48.88344 23970 ft 425 kts 329°
2026-05-09 11:57 -0.71361 -48.89918 24295 ft 427 kts 329°
2026-05-09 11:57 -0.68836 -48.91497 24629 ft 429 kts 329°
2026-05-09 11:58 -0.66297 -48.93085 24956 ft 431 kts 329°
2026-05-09 11:58 -0.63752 -48.94682 25278 ft 433 kts 329°
2026-05-09 11:58 -0.61229 -48.96267 25592 ft 435 kts 329°
2026-05-09 11:58 -0.58665 -48.97877 25906 ft 437 kts 329°
2026-05-09 11:59 -0.56084 -48.99493 26203 ft 439 kts 329°
2026-05-09 11:59 -0.53492 -49.01116 26496 ft 441 kts 329°
2026-05-09 11:59 -0.50887 -49.02745 26786 ft 443 kts 329°
2026-05-09 11:59 -0.48270 -49.04382 27072 ft 445 kts 329°
2026-05-09 12:00 -0.45645 -49.06027 27359 ft 446 kts 329°
2026-05-09 12:00 -0.43007 -49.07683 27626 ft 449 kts 328°
2026-05-09 12:00 -0.40360 -49.09346 27888 ft 451 kts 328°
2026-05-09 12:00 -0.37699 -49.11017 28152 ft 453 kts 328°
2026-05-09 12:01 -0.35029 -49.12695 28430 ft 455 kts 328°
2026-05-09 12:01 -0.32348 -49.14377 28718 ft 456 kts 328°
2026-05-09 12:01 -0.29655 -49.16064 28961 ft 458 kts 328°
2026-05-09 12:01 -0.26951 -49.17757 29213 ft 459 kts 328°
2026-05-09 12:02 -0.24236 -49.19457 29448 ft 462 kts 328°
2026-05-09 12:02 -0.21510 -49.21161 29708 ft 463 kts 328°
2026-05-09 12:02 -0.18777 -49.22871 29955 ft 464 kts 328°
2026-05-09 12:02 -0.16038 -49.24588 30174 ft 466 kts 328°
2026-05-09 12:03 -0.13292 -49.26311 30370 ft 467 kts 327°
2026-05-09 12:03 -0.10535 -49.28040 30567 ft 468 kts 327°
2026-05-09 12:03 -0.07778 -49.29771 30763 ft 469 kts 327°
2026-05-09 12:03 -0.05010 -49.31506 30961 ft 470 kts 327°
2026-05-09 12:04 -0.02240 -49.33244 31166 ft 470 kts 327°
2026-05-09 12:04 0.00526 -49.34980 31427 ft 469 kts 327°
2026-05-09 12:04 0.03295 -49.36719 31630 ft 470 kts 327°
2026-05-09 12:04 0.06067 -49.38456 31850 ft 470 kts 328°
2026-05-09 12:05 0.08838 -49.40190 32114 ft 470 kts 328°
2026-05-09 12:05 0.11603 -49.41920 32390 ft 468 kts 327°
2026-05-09 12:05 0.14326 -49.43624 32654 ft 468 kts 327°
2026-05-09 12:05 0.17115 -49.45371 32924 ft 467 kts 327°
2026-05-09 12:06 0.19828 -49.47071 33186 ft 466 kts 327°
2026-05-09 12:06 0.22569 -49.48792 33470 ft 465 kts 327°
2026-05-09 12:06 0.25308 -49.50506 33755 ft 464 kts 327°
2026-05-09 12:06 0.28038 -49.52216 34033 ft 463 kts 327°
2026-05-09 12:07 0.30764 -49.53925 34267 ft 463 kts 326°
2026-05-09 12:07 0.33494 -49.55638 34446 ft 463 kts 327°
2026-05-09 12:07 0.36224 -49.57351 34652 ft 463 kts 327°
2026-05-09 12:07 0.38949 -49.59062 34879 ft 462 kts 327°
2026-05-09 12:08 0.41672 -49.60764 35103 ft 461 kts 327°
2026-05-09 12:08 0.44392 -49.62465 35314 ft 461 kts 326°
2026-05-09 12:08 0.47105 -49.64164 35524 ft 460 kts 326°
2026-05-09 12:08 0.49813 -49.65863 35734 ft 459 kts 326°
2026-05-09 12:09 0.52516 -49.67564 35911 ft 459 kts 326°
2026-05-09 12:09 0.57898 -49.70941 35974 ft 455 kts 326°
2026-05-09 12:10 0.68616 -49.77653 35977 ft 454 kts 326°
2026-05-09 12:11 0.73964 -49.81010 35979 ft 454 kts 326°
2026-05-09 12:11 0.79316 -49.84365 35978 ft 454 kts 326°
2026-05-09 12:12 0.84670 -49.87720 35979 ft 454 kts 326°
2026-05-09 12:12 0.90021 -49.91076 35983 ft 454 kts 326°
2026-05-09 12:13 0.95335 -49.94415 35983 ft 454 kts 326°
2026-05-09 12:13 1.00685 -49.97769 35988 ft 454 kts 326°
2026-05-09 12:14 1.06033 -50.01129 35982 ft 454 kts 326°
2026-05-09 12:14 1.11391 -50.04482 35982 ft 454 kts 326°
2026-05-09 12:15 1.16752 -50.07831 35983 ft 454 kts 326°
2026-05-09 12:15 1.22105 -50.11188 35986 ft 454 kts 325°
2026-05-09 12:16 1.27457 -50.14547 35988 ft 454 kts 325°
2026-05-09 12:16 1.32806 -50.17911 35987 ft 454 kts 325°
2026-05-09 12:17 1.38156 -50.21270 35987 ft 454 kts 325°
2026-05-09 12:17 1.43516 -50.24625 35985 ft 455 kts 325°
2026-05-09 12:18 1.48878 -50.27982 35992 ft 455 kts 325°
2026-05-09 12:18 1.54231 -50.31347 35991 ft 454 kts 325°
2026-05-09 12:19 1.59583 -50.34712 35993 ft 454 kts 325°
2026-05-09 12:19 1.64935 -50.38073 35990 ft 454 kts 325°
2026-05-09 12:20 1.70292 -50.41426 35990 ft 454 kts 325°
2026-05-09 12:20 1.75650 -50.44779 35985 ft 454 kts 325°
2026-05-09 12:21 1.81005 -50.48144 35991 ft 454 kts 325°
2026-05-09 12:21 1.86352 -50.51512 35992 ft 454 kts 325°
2026-05-09 12:22 1.91708 -50.54868 35993 ft 454 kts 325°
2026-05-09 12:22 1.97069 -50.58223 35994 ft 454 kts 325°
2026-05-09 12:23 2.02421 -50.61583 35992 ft 454 kts 325°
2026-05-09 12:23 2.07765 -50.64950 35993 ft 454 kts 325°
2026-05-09 12:24 2.13077 -50.68293 35992 ft 454 kts 325°
2026-05-09 12:24 2.18427 -50.71648 35994 ft 454 kts 324°
2026-05-09 12:25 2.23747 -50.75052 35993 ft 454 kts 324°
2026-05-09 12:25 2.29036 -50.78490 35990 ft 454 kts 324°
2026-05-09 12:26 2.34329 -50.81926 35992 ft 454 kts 324°
2026-05-09 12:26 2.39626 -50.85359 35994 ft 453 kts 324°
2026-05-09 12:27 2.44928 -50.88781 35992 ft 453 kts 324°
2026-05-09 12:27 2.50232 -50.92194 35990 ft 454 kts 324°
2026-05-09 12:28 2.55533 -50.95616 35991 ft 454 kts 324°
2026-05-09 12:28 2.60831 -50.99047 35992 ft 454 kts 324°
2026-05-09 12:29 2.66131 -51.02472 35994 ft 454 kts 324°
2026-05-09 12:29 2.70539 -51.05316 35992 ft 454 kts 324°
2026-05-09 12:30 2.75845 -51.08733 35994 ft 454 kts 324°
2026-05-09 12:30 2.83796 -51.13870 35995 ft 454 kts 324°
2026-05-09 12:31 2.91748 -51.19007 35997 ft 454 kts 324°
2026-05-09 12:32 2.97044 -51.22441 36004 ft 454 kts 324°
2026-05-09 12:32 3.02343 -51.25868 35999 ft 454 kts 324°
2026-05-09 12:33 3.07643 -51.29286 35997 ft 453 kts 324°
2026-05-09 12:33 3.12937 -51.32716 35995 ft 453 kts 324°
2026-05-09 12:34 3.18229 -51.36150 35993 ft 453 kts 324°
2026-05-09 12:34 3.23525 -51.39571 35994 ft 453 kts 324°
2026-05-09 12:35 3.28825 -51.42989 35994 ft 453 kts 324°
2026-05-09 12:35 3.34127 -51.46414 35382 ft 453 kts 324°
2026-05-09 12:35 3.36768 -51.48123 34854 ft 451 kts 324°
2026-05-09 12:36 3.39393 -51.49820 34306 ft 449 kts 324°
2026-05-09 12:36 3.42014 -51.51513 33717 ft 447 kts 324°
2026-05-09 12:36 3.44622 -51.53199 33170 ft 444 kts 324°
2026-05-09 12:36 3.47208 -51.54873 32613 ft 442 kts 325°
2026-05-09 12:37 3.49781 -51.56541 32081 ft 439 kts 325°
2026-05-09 12:37 3.52339 -51.58201 31544 ft 437 kts 325°
2026-05-09 12:37 3.54887 -51.59856 31014 ft 436 kts 325°
2026-05-09 12:37 3.57427 -51.61503 30490 ft 434 kts 326°
2026-05-09 12:38 3.59929 -51.63120 29964 ft 433 kts 326°
2026-05-09 12:38 3.62454 -51.64751 29418 ft 430 kts 326°
2026-05-09 12:38 3.64990 -51.66390 28916 ft 426 kts 326°
2026-05-09 12:38 3.67470 -51.67995 28428 ft 423 kts 326°
2026-05-09 12:39 3.69894 -51.69565 27957 ft 419 kts 326°
2026-05-09 12:39 3.72334 -51.71147 27489 ft 416 kts 326°
2026-05-09 12:39 3.74754 -51.72716 27035 ft 413 kts 326°
2026-05-09 12:39 3.77161 -51.74274 26576 ft 411 kts 326°
2026-05-09 12:40 3.79556 -51.75825 26123 ft 409 kts 327°
2026-05-09 12:40 3.81940 -51.77368 25662 ft 407 kts 327°
2026-05-09 12:40 3.84313 -51.78906 25181 ft 406 kts 327°
2026-05-09 12:40 3.86682 -51.80436 24709 ft 405 kts 328°
2026-05-09 12:41 3.89080 -51.81916 24176 ft 405 kts 329°
2026-05-09 12:41 3.91506 -51.83354 23658 ft 406 kts 330°
2026-05-09 12:41 3.93952 -51.84770 23053 ft 406 kts 330°
2026-05-09 12:41 3.96401 -51.86182 22545 ft 405 kts 330°
2026-05-09 12:42 3.98837 -51.87597 22025 ft 404 kts 330°
2026-05-09 12:42 4.01246 -51.89011 21549 ft 401 kts 330°
2026-05-09 12:42 4.03639 -51.90425 21189 ft 396 kts 330°
2026-05-09 12:42 4.05999 -51.91826 20751 ft 393 kts 330°
2026-05-09 12:43 4.08324 -51.93212 20012 ft 386 kts 330°
2026-05-09 12:43 4.10600 -51.94568 19502 ft 374 kts 330°
2026-05-09 12:43 4.12802 -51.95879 19044 ft 366 kts 330°
2026-05-09 12:43 4.14991 -51.97177 18583 ft 366 kts 330°
2026-05-09 12:44 4.17180 -51.98474 18108 ft 365 kts 331°
2026-05-09 12:44 4.19364 -51.99767 17630 ft 364 kts 331°
2026-05-09 12:44 4.21534 -52.01052 17194 ft 361 kts 330°
2026-05-09 12:44 4.23636 -52.02422 16756 ft 361 kts 322°
2026-05-09 12:45 4.25409 -52.04194 16318 ft 360 kts 311°
2026-05-09 12:45 4.27025 -52.06103 15884 ft 359 kts 311°
2026-05-09 12:45 4.28637 -52.08007 15456 ft 358 kts 311°
2026-05-09 12:45 4.30247 -52.09907 15030 ft 357 kts 311°
2026-05-09 12:46 4.31850 -52.11800 14601 ft 356 kts 311°
2026-05-09 12:46 4.33450 -52.13689 14182 ft 355 kts 311°
2026-05-09 12:46 4.35046 -52.15572 13752 ft 354 kts 311°
2026-05-09 12:46 4.36618 -52.17428 13299 ft 353 kts 311°
2026-05-09 12:47 4.38202 -52.19296 12875 ft 351 kts 311°
2026-05-09 12:47 4.39778 -52.21153 12446 ft 349 kts 311°
2026-05-09 12:47 4.41344 -52.23000 12088 ft 345 kts 311°
2026-05-09 12:47 4.42918 -52.24857 11593 ft 345 kts 311°
2026-05-09 12:48 4.44430 -52.26644 11417 ft 335 kts 311°
2026-05-09 12:48 4.45908 -52.28393 11286 ft 323 kts 311°
2026-05-09 12:48 4.47342 -52.30086 11026 ft 314 kts 311°
2026-05-09 12:48 4.48749 -52.31747 10415 ft 311 kts 311°
2026-05-09 12:49 4.50143 -52.33391 9806 ft 308 kts 311°
2026-05-09 12:49 4.51527 -52.35024 9185 ft 305 kts 311°
2026-05-09 12:49 4.52882 -52.36626 8729 ft 299 kts 311°
2026-05-09 12:49 4.54233 -52.38222 8273 ft 301 kts 311°
2026-05-09 12:50 4.55567 -52.39800 7876 ft 291 kts 311°
2026-05-09 12:50 4.56847 -52.41313 7472 ft 281 kts 311°
2026-05-09 12:50 4.58100 -52.42794 7071 ft 277 kts 312°
2026-05-09 12:50 4.59350 -52.44274 6660 ft 279 kts 312°
2026-05-09 12:51 4.60610 -52.45765 6226 ft 282 kts 312°
2026-05-09 12:51 4.61881 -52.47266 5779 ft 283 kts 312°
2026-05-09 12:51 4.63129 -52.48740 5593 ft 268 kts 312°
2026-05-09 12:51 4.64304 -52.50132 5302 ft 258 kts 312°
2026-05-09 12:52 4.65512 -52.51424 5156 ft 251 kts 323°
2026-05-09 12:52 4.66980 -52.52310 5039 ft 241 kts 339°
2026-05-09 12:52 4.68496 -52.52993 4768 ft 238 kts 338°
2026-05-09 12:52 4.70007 -52.53681 4438 ft 238 kts 338°
2026-05-09 12:53 4.71555 -52.54210 4091 ft 233 kts 359°
2026-05-09 12:53 4.73101 -52.53930 3770 ft 225 kts 30°
2026-05-09 12:53 4.74235 -52.52909 3454 ft 219 kts 60°
2026-05-09 12:53 4.74897 -52.51549 3143 ft 217 kts 66°
2026-05-09 12:54 4.75533 -52.50160 2730 ft 222 kts 65°
2026-05-09 12:54 4.76175 -52.48761 2408 ft 218 kts 65°
2026-05-09 12:54 4.76800 -52.47406 2110 ft 210 kts 66°
2026-05-09 12:54 4.77396 -52.46113 1851 ft 200 kts 66°
2026-05-09 12:55 4.77965 -52.44879 1631 ft 189 kts 66°
2026-05-09 12:55 4.78495 -52.43730 1364 ft 175 kts 66°
2026-05-09 12:55 4.78974 -52.42691 1157 ft 155 kts 65°
2026-05-09 12:55 4.79414 -52.41736 970 ft 148 kts 65°
2026-05-09 12:56 4.79839 -52.40794 759 ft 148 kts 66°
2026-05-09 12:56 4.80254 -52.39865 551 ft 143 kts 65°
2026-05-09 12:56 4.80681 -52.38973 383 ft 141 kts 64°
2026-05-09 12:56 4.81084 -52.38092 208 ft 141 kts 62°
2026-05-09 12:57 4.81506 -52.37195 34 ft 139 kts 64°
2026-05-09 12:57 4.81858 -52.36432 29 ft 98 kts 65°
2026-05-09 12:57 4.82027 -52.36069 29 ft 27 kts 64°
2026-05-09 12:57 4.82087 -52.35985 29 ft 15 kts 22°
2026-05-09 12:58 4.82163 -52.36021 29 ft 10 kts 302°
2026-05-09 12:58 4.82189 -52.36070 29 ft 6 kts 283°
2026-05-09 12:58 4.82182 -52.36113 29 ft 6 kts 251°
2026-05-09 12:58 4.82167 -52.36149 29 ft 5 kts 246°
2026-05-09 12:59 4.82153 -52.36179 29 ft 4 kts 244°
2026-05-09 12:59 4.82141 -52.36202 29 ft 3 kts 239°
2026-05-09 12:59 4.82130 -52.36220 29 ft 3 kts 239°
2026-05-09 12:59 4.82109 -52.36259 29 ft 7 kts 244°
2026-05-09 13:00 4.82089 -52.36301 29 ft 6 kts 245°
2026-05-09 13:00 4.82088 -52.36334 29 ft 4 kts 311°
2026-05-09 13:00 4.82118 -52.36350 29 ft 6 kts 334°
2026-05-09 13:00 4.82136 -52.36359 29 ft 1 kts 335°
2026-05-09 13:01 4.82143 -52.36362 29 ft 3 kts 335°
2026-05-09 13:01 4.82153 -52.36367 29 ft 0 kts 335°